Year,Month,Day,Hour,Minute,Value (Times are PST for temperature in C)
2015,06,16,00,00,12.10
2015,06,16,00,01,12.10
2015,06,16,00,02,12.10
2015,06,16,00,03,12.10
2015,06,16,00,04,12.00
2015,06,16,00,05,11.90
2015,06,16,00,06,11.90
2015,06,16,00,07,11.90
2015,06,16,00,08,11.90
2015,06,16,00,09,11.80
2015,06,16,00,10,11.80
2015,06,16,00,11,11.80
2015,06,16,00,12,11.80
2015,06,16,00,13,11.70
2015,06,16,00,14,11.70
2015,06,16,00,15,11.70
2015,06,16,00,16,11.70
2015,06,16,00,17,11.70
2015,06,16,00,18,11.70
2015,06,16,00,19,11.70
2015,06,16,00,20,11.70
2015,06,16,00,21,11.70
2015,06,16,00,22,11.70
2015,06,16,00,23,11.60
2015,06,16,00,24,11.60
2015,06,16,00,25,11.60
2015,06,16,00,26,11.60
2015,06,16,00,27,11.50
2015,06,16,00,28,11.50
2015,06,16,00,29,11.50
2015,06,16,00,30,11.50
2015,06,16,00,31,11.40
2015,06,16,00,32,11.40
2015,06,16,00,33,11.40
2015,06,16,00,34,11.40
2015,06,16,00,35,11.40
2015,06,16,00,36,11.30
2015,06,16,00,37,11.30
2015,06,16,00,38,11.30
2015,06,16,00,39,11.30
2015,06,16,00,40,11.30
2015,06,16,00,41,11.30
2015,06,16,00,42,11.30
2015,06,16,00,43,11.20
2015,06,16,00,44,11.20
2015,06,16,00,45,11.20
2015,06,16,00,46,11.20
2015,06,16,00,47,11.30
2015,06,16,00,48,11.30
2015,06,16,00,49,11.30
2015,06,16,00,50,11.30
2015,06,16,00,51,11.30
2015,06,16,00,52,11.30
2015,06,16,00,53,11.30
2015,06,16,00,54,11.30
2015,06,16,00,55,11.30
2015,06,16,00,56,11.40
2015,06,16,00,57,11.40
2015,06,16,00,58,11.40
2015,06,16,00,59,11.50
2015,06,16,01,00,11.50
2015,06,16,01,01,11.50
2015,06,16,01,02,11.50
2015,06,16,01,03,11.50
2015,06,16,01,04,11.50
2015,06,16,01,05,11.50
2015,06,16,01,06,11.50
2015,06,16,01,07,11.50
2015,06,16,01,08,11.50
2015,06,16,01,09,11.40
2015,06,16,01,10,11.40
2015,06,16,01,11,11.40
2015,06,16,01,12,11.40
2015,06,16,01,13,11.40
2015,06,16,01,14,11.40
2015,06,16,01,15,11.30
2015,06,16,01,16,11.30
2015,06,16,01,17,11.30
2015,06,16,01,18,11.30
2015,06,16,01,19,11.30
2015,06,16,01,20,11.30
2015,06,16,01,21,11.30
2015,06,16,01,22,11.20
2015,06,16,01,23,11.20
2015,06,16,01,24,11.20
2015,06,16,01,25,11.20
2015,06,16,01,26,11.10
2015,06,16,01,27,11.10
2015,06,16,01,28,11.10
2015,06,16,01,29,11.10
2015,06,16,01,30,11.10
2015,06,16,01,31,11.10
2015,06,16,01,32,11.00
2015,06,16,01,33,11.00
2015,06,16,01,34,11.00
2015,06,16,01,35,11.00
2015,06,16,01,36,11.00
2015,06,16,01,37,10.90
2015,06,16,01,38,10.90
2015,06,16,01,39,10.90
2015,06,16,01,40,10.90
2015,06,16,01,41,10.90
2015,06,16,01,42,10.90
2015,06,16,01,43,10.90
2015,06,16,01,44,10.90
2015,06,16,01,45,10.90
2015,06,16,01,46,10.80
2015,06,16,01,47,10.80
2015,06,16,01,48,10.80
2015,06,16,01,49,10.80
2015,06,16,01,50,10.80
2015,06,16,01,51,10.80
2015,06,16,01,52,10.80
2015,06,16,01,53,10.80
2015,06,16,01,54,10.80
2015,06,16,01,55,10.80
2015,06,16,01,56,10.80
2015,06,16,01,57,10.70
2015,06,16,01,58,10.70
2015,06,16,01,59,10.80
2015,06,16,02,00,10.80
2015,06,16,02,01,10.80
2015,06,16,02,02,10.80
2015,06,16,02,03,10.80
2015,06,16,02,04,10.80
2015,06,16,02,05,10.80
2015,06,16,02,06,10.80
2015,06,16,02,07,10.70
2015,06,16,02,08,10.70
2015,06,16,02,09,10.70
2015,06,16,02,10,10.70
2015,06,16,02,11,10.70
2015,06,16,02,12,10.70
2015,06,16,02,13,10.70
2015,06,16,02,14,10.70
2015,06,16,02,15,10.70
2015,06,16,02,16,10.70
2015,06,16,02,17,10.60
2015,06,16,02,18,10.60
2015,06,16,02,19,10.60
2015,06,16,02,20,10.60
2015,06,16,02,21,10.60
2015,06,16,02,22,10.60
2015,06,16,02,23,10.60
2015,06,16,02,24,10.50
2015,06,16,02,25,10.50
2015,06,16,02,26,10.50
2015,06,16,02,27,10.50
2015,06,16,02,28,10.50
2015,06,16,02,29,10.50
2015,06,16,02,30,10.40
2015,06,16,02,31,10.40
2015,06,16,02,32,10.40
2015,06,16,02,33,10.40
2015,06,16,02,34,10.40
2015,06,16,02,35,10.40
2015,06,16,02,36,10.40
2015,06,16,02,37,10.40
2015,06,16,02,38,10.40
2015,06,16,02,39,10.40
2015,06,16,02,40,10.40
2015,06,16,02,41,10.40
2015,06,16,02,42,10.40
2015,06,16,02,43,10.40
2015,06,16,02,44,10.40
2015,06,16,02,45,10.40
2015,06,16,02,46,10.40
2015,06,16,02,47,10.40
2015,06,16,02,48,10.40
2015,06,16,02,49,10.40
2015,06,16,02,50,10.40
2015,06,16,02,51,10.40
2015,06,16,02,52,10.40
2015,06,16,02,53,10.40
2015,06,16,02,54,10.40
2015,06,16,02,55,10.40
2015,06,16,02,56,10.50
2015,06,16,02,57,10.50
2015,06,16,02,58,10.60
2015,06,16,02,59,10.60
2015,06,16,03,00,10.60
2015,06,16,03,01,10.60
2015,06,16,03,02,10.60
2015,06,16,03,03,10.70
2015,06,16,03,04,10.70
2015,06,16,03,05,10.70
2015,06,16,03,06,10.70
2015,06,16,03,07,10.70
2015,06,16,03,08,10.80
2015,06,16,03,09,10.70
2015,06,16,03,10,10.70
2015,06,16,03,11,10.70
2015,06,16,03,12,10.80
2015,06,16,03,13,10.80
2015,06,16,03,14,10.80
2015,06,16,03,15,10.80
2015,06,16,03,16,10.80
2015,06,16,03,17,10.80
2015,06,16,03,18,10.80
2015,06,16,03,19,10.80
2015,06,16,03,20,10.80
2015,06,16,03,21,10.70
2015,06,16,03,22,10.70
2015,06,16,03,23,10.70
2015,06,16,03,24,10.80
2015,06,16,03,25,10.80
2015,06,16,03,26,10.80
2015,06,16,03,27,10.80
2015,06,16,03,28,10.80
2015,06,16,03,29,10.80
2015,06,16,03,30,10.80
2015,06,16,03,31,10.80
2015,06,16,03,32,10.80
2015,06,16,03,33,10.80
2015,06,16,03,34,10.80
2015,06,16,03,35,10.90
2015,06,16,03,36,10.90
2015,06,16,03,37,10.90
2015,06,16,03,38,10.90
2015,06,16,03,39,10.90
2015,06,16,03,40,10.90
2015,06,16,03,41,10.90
2015,06,16,03,42,10.90
2015,06,16,03,43,10.90
2015,06,16,03,44,11.00
2015,06,16,03,45,11.00
2015,06,16,03,46,11.00
2015,06,16,03,47,11.00
2015,06,16,03,48,11.00
2015,06,16,03,49,11.00
2015,06,16,03,50,11.00
2015,06,16,03,51,11.00
2015,06,16,03,52,11.00
2015,06,16,03,53,11.00
2015,06,16,03,54,11.00
2015,06,16,03,55,11.00
2015,06,16,03,56,11.10
2015,06,16,03,57,11.10
2015,06,16,03,58,11.10
2015,06,16,03,59,11.20
2015,06,16,04,00,11.40
2015,06,16,04,01,11.60
2015,06,16,04,02,11.80
2015,06,16,04,03,11.90
2015,06,16,04,04,12.10
2015,06,16,04,05,12.30
2015,06,16,04,06,12.40
2015,06,16,04,07,12.60
2015,06,16,04,08,12.70
2015,06,16,04,09,12.80
2015,06,16,04,10,12.90
2015,06,16,04,11,12.90
2015,06,16,04,12,13.00
2015,06,16,04,13,13.00
2015,06,16,04,14,13.10
2015,06,16,04,15,13.20
2015,06,16,04,16,13.30
2015,06,16,04,17,13.40
2015,06,16,04,18,13.40
2015,06,16,04,19,13.50
2015,06,16,04,20,13.50
2015,06,16,04,21,13.50
2015,06,16,04,22,13.60
2015,06,16,04,23,13.60
2015,06,16,04,24,13.60
2015,06,16,04,25,13.60
2015,06,16,04,26,13.60
2015,06,16,04,27,13.50
2015,06,16,04,28,13.50
2015,06,16,04,29,13.50
2015,06,16,04,30,13.50
2015,06,16,04,31,13.50
2015,06,16,04,32,13.50
2015,06,16,04,33,13.50
2015,06,16,04,34,13.50
2015,06,16,04,35,13.50
2015,06,16,04,36,13.50
2015,06,16,04,37,13.50
2015,06,16,04,38,13.50
2015,06,16,04,39,13.40
2015,06,16,04,40,13.40
2015,06,16,04,41,13.40
2015,06,16,04,42,13.40
2015,06,16,04,43,13.40
2015,06,16,04,44,13.40
2015,06,16,04,45,13.40
2015,06,16,04,46,13.30
2015,06,16,04,47,13.30
2015,06,16,04,48,13.30
2015,06,16,04,49,13.20
2015,06,16,04,50,13.20
2015,06,16,04,51,13.20
2015,06,16,04,52,13.20
2015,06,16,04,53,13.20
2015,06,16,04,54,13.20
2015,06,16,04,55,13.20
2015,06,16,04,56,13.20
2015,06,16,04,57,13.20
2015,06,16,04,58,13.20
2015,06,16,04,59,13.20
2015,06,16,05,00,13.10
2015,06,16,05,01,13.10
2015,06,16,05,02,13.10
2015,06,16,05,03,13.10
2015,06,16,05,04,13.10
2015,06,16,05,05,13.00
2015,06,16,05,06,13.00
2015,06,16,05,07,13.00
2015,06,16,05,08,12.90
2015,06,16,05,09,12.90
2015,06,16,05,10,12.90
2015,06,16,05,11,12.90
2015,06,16,05,12,12.90
2015,06,16,05,13,12.90
2015,06,16,05,14,12.90
2015,06,16,05,15,12.90
2015,06,16,05,16,12.90
2015,06,16,05,17,12.90
2015,06,16,05,18,12.90
2015,06,16,05,19,12.90
2015,06,16,05,20,12.90
2015,06,16,05,21,12.90
2015,06,16,05,22,13.00
2015,06,16,05,23,13.00
2015,06,16,05,24,13.00
2015,06,16,05,25,13.10
2015,06,16,05,26,13.10
2015,06,16,05,27,13.10
2015,06,16,05,28,13.10
2015,06,16,05,29,13.10
2015,06,16,05,30,13.10
2015,06,16,05,31,13.10
2015,06,16,05,32,13.10
2015,06,16,05,33,13.20
2015,06,16,05,34,13.20
2015,06,16,05,35,13.20
2015,06,16,05,36,13.20
2015,06,16,05,37,13.20
2015,06,16,05,38,13.10
2015,06,16,05,39,13.10
2015,06,16,05,40,13.10
2015,06,16,05,41,13.10
2015,06,16,05,42,13.10
2015,06,16,05,43,13.10
2015,06,16,05,44,13.10
2015,06,16,05,45,13.00
2015,06,16,05,46,13.00
2015,06,16,05,47,13.00
2015,06,16,05,48,13.00
2015,06,16,05,49,13.00
2015,06,16,05,50,13.00
2015,06,16,05,51,13.00
2015,06,16,05,52,13.00
2015,06,16,05,53,12.90
2015,06,16,05,54,12.90
2015,06,16,05,55,12.90
2015,06,16,05,56,12.90
2015,06,16,05,57,12.90
2015,06,16,05,58,12.90
2015,06,16,05,59,12.90
2015,06,16,06,00,12.90
2015,06,16,06,01,12.90
2015,06,16,06,02,12.90
2015,06,16,06,03,12.90
2015,06,16,06,04,12.90
2015,06,16,06,05,12.90
2015,06,16,06,06,12.90
2015,06,16,06,07,12.90
2015,06,16,06,08,12.90
2015,06,16,06,09,12.90
2015,06,16,06,10,12.90
2015,06,16,06,11,12.90
2015,06,16,06,12,12.80
2015,06,16,06,13,12.80
2015,06,16,06,14,12.80
2015,06,16,06,15,12.80
2015,06,16,06,16,12.80
2015,06,16,06,17,12.80
2015,06,16,06,18,12.80
2015,06,16,06,19,12.80
2015,06,16,06,20,12.80
2015,06,16,06,21,12.80
2015,06,16,06,22,12.80
2015,06,16,06,23,12.80
2015,06,16,06,24,12.80
2015,06,16,06,25,12.80
2015,06,16,06,26,12.80
2015,06,16,06,27,12.80
2015,06,16,06,28,12.80
2015,06,16,06,29,12.80
2015,06,16,06,30,12.80
2015,06,16,06,31,12.80
2015,06,16,06,32,12.80
2015,06,16,06,33,12.80
2015,06,16,06,34,12.80
2015,06,16,06,35,12.80
2015,06,16,06,36,12.80
2015,06,16,06,37,12.80
2015,06,16,06,38,12.80
2015,06,16,06,39,12.80
2015,06,16,06,40,12.80
2015,06,16,06,41,12.80
2015,06,16,06,42,12.70
2015,06,16,06,43,12.70
2015,06,16,06,44,12.70
2015,06,16,06,45,12.70
2015,06,16,06,46,12.70
2015,06,16,06,47,12.70
2015,06,16,06,48,12.80
2015,06,16,06,49,12.80
2015,06,16,06,50,12.80
2015,06,16,06,51,12.80
2015,06,16,06,52,12.80
2015,06,16,06,53,12.80
2015,06,16,06,54,12.80
2015,06,16,06,55,12.70
2015,06,16,06,56,12.70
2015,06,16,06,57,12.70
2015,06,16,06,58,12.70
2015,06,16,06,59,12.70
2015,06,16,07,00,12.70
2015,06,16,07,01,12.70
2015,06,16,07,02,12.70
2015,06,16,07,03,12.70
2015,06,16,07,04,12.70
2015,06,16,07,05,12.70
2015,06,16,07,06,12.70
2015,06,16,07,07,12.70
2015,06,16,07,08,12.70
2015,06,16,07,09,12.70
2015,06,16,07,10,12.70
2015,06,16,07,11,12.70
2015,06,16,07,12,12.70
2015,06,16,07,13,12.60
2015,06,16,07,14,12.60
2015,06,16,07,15,12.60
2015,06,16,07,16,12.60
2015,06,16,07,17,12.60
2015,06,16,07,18,12.50
2015,06,16,07,19,12.50
2015,06,16,07,20,12.50
2015,06,16,07,21,12.50
2015,06,16,07,22,12.50
2015,06,16,07,23,12.50
2015,06,16,07,24,12.50
2015,06,16,07,25,12.50
2015,06,16,07,26,12.50
2015,06,16,07,27,12.50
2015,06,16,07,28,12.50
2015,06,16,07,29,12.50
2015,06,16,07,30,12.50
2015,06,16,07,31,12.60
2015,06,16,07,32,12.60
2015,06,16,07,33,12.60
2015,06,16,07,34,12.60
2015,06,16,07,35,12.60
2015,06,16,07,36,12.60
2015,06,16,07,37,12.60
2015,06,16,07,38,12.60
2015,06,16,07,39,12.60
2015,06,16,07,40,12.60
2015,06,16,07,41,12.50
2015,06,16,07,42,12.50
2015,06,16,07,43,12.40
2015,06,16,07,44,12.40
2015,06,16,07,45,12.40
2015,06,16,07,46,12.40
2015,06,16,07,47,12.40
2015,06,16,07,48,12.40
2015,06,16,07,49,12.30
2015,06,16,07,50,12.30
2015,06,16,07,51,12.30
2015,06,16,07,52,12.30
2015,06,16,07,53,12.30
2015,06,16,07,54,12.30
2015,06,16,07,55,12.40
2015,06,16,07,56,12.40
2015,06,16,07,57,12.40
2015,06,16,07,58,12.40
2015,06,16,07,59,12.40
2015,06,16,08,00,12.40
2015,06,16,08,01,12.40
2015,06,16,08,02,12.50
2015,06,16,08,03,12.50
2015,06,16,08,04,12.50
2015,06,16,08,05,12.60
2015,06,16,08,06,12.60
2015,06,16,08,07,12.60
2015,06,16,08,08,12.60
2015,06,16,08,09,12.70
2015,06,16,08,10,12.70
2015,06,16,08,11,12.70
2015,06,16,08,12,12.70
2015,06,16,08,13,12.70
2015,06,16,08,14,12.70
2015,06,16,08,15,12.70
2015,06,16,08,16,12.80
2015,06,16,08,17,12.80
2015,06,16,08,18,12.70
2015,06,16,08,19,12.70
2015,06,16,08,20,12.70
2015,06,16,08,21,12.70
2015,06,16,08,22,12.70
2015,06,16,08,23,12.70
2015,06,16,08,24,12.80
2015,06,16,08,25,12.80
2015,06,16,08,26,12.80
2015,06,16,08,27,12.80
2015,06,16,08,28,12.80
2015,06,16,08,29,12.80
2015,06,16,08,30,12.80
2015,06,16,08,31,12.80
2015,06,16,08,32,12.80
2015,06,16,08,33,12.80
2015,06,16,08,34,12.70
2015,06,16,08,35,12.70
2015,06,16,08,36,12.70
2015,06,16,08,37,12.70
2015,06,16,08,38,12.70
2015,06,16,08,39,12.70
2015,06,16,08,40,12.70
2015,06,16,08,41,12.70
2015,06,16,08,42,12.70
2015,06,16,08,43,12.70
2015,06,16,08,44,12.70
2015,06,16,08,45,12.70
2015,06,16,08,46,12.70
2015,06,16,08,47,12.60
2015,06,16,08,48,12.60
2015,06,16,08,49,12.60
2015,06,16,08,50,12.60
2015,06,16,08,51,12.60
2015,06,16,08,52,12.60
2015,06,16,08,53,12.60
2015,06,16,08,54,12.60
2015,06,16,08,55,12.60
2015,06,16,08,56,12.60
2015,06,16,08,57,12.60
2015,06,16,08,58,12.60
2015,06,16,08,59,12.60
2015,06,16,09,00,12.60
2015,06,16,09,01,12.70
2015,06,16,09,02,12.70
2015,06,16,09,03,12.70
2015,06,16,09,04,12.70
2015,06,16,09,05,12.70
2015,06,16,09,06,12.70
2015,06,16,09,07,12.70
2015,06,16,09,08,12.70
2015,06,16,09,09,12.70
2015,06,16,09,10,12.70
2015,06,16,09,11,12.70
2015,06,16,09,12,12.70
2015,06,16,09,13,12.80
2015,06,16,09,14,12.80
2015,06,16,09,15,12.80
2015,06,16,09,16,12.80
2015,06,16,09,17,12.80
2015,06,16,09,18,12.80
2015,06,16,09,19,12.80
2015,06,16,09,20,12.80
2015,06,16,09,21,12.80
2015,06,16,09,22,12.90
2015,06,16,09,23,12.90
2015,06,16,09,24,12.90
2015,06,16,09,25,12.90
2015,06,16,09,26,12.90
2015,06,16,09,27,12.90
2015,06,16,09,28,12.90
2015,06,16,09,29,12.90
2015,06,16,09,30,12.90
2015,06,16,09,31,12.90
2015,06,16,09,32,12.90
2015,06,16,09,33,12.90
2015,06,16,09,34,12.90
2015,06,16,09,35,12.90
2015,06,16,09,36,13.00
2015,06,16,09,37,13.00
2015,06,16,09,38,13.00
2015,06,16,09,39,13.10
2015,06,16,09,40,13.10
2015,06,16,09,41,13.10
2015,06,16,09,42,13.20
2015,06,16,09,43,13.20
2015,06,16,09,44,13.30
2015,06,16,09,45,13.40
2015,06,16,09,46,13.50
2015,06,16,09,47,13.60
2015,06,16,09,48,13.70
2015,06,16,09,49,13.80
2015,06,16,09,50,14.00
2015,06,16,09,51,14.10
2015,06,16,09,52,14.30
2015,06,16,09,53,14.40
2015,06,16,09,54,14.60
2015,06,16,09,55,14.70
2015,06,16,09,56,14.80
2015,06,16,09,57,14.90
2015,06,16,09,58,15.00
2015,06,16,09,59,15.00
2015,06,16,10,00,15.10
2015,06,16,10,01,15.10
2015,06,16,10,02,15.10
2015,06,16,10,03,15.20
2015,06,16,10,04,15.30
2015,06,16,10,05,15.40
2015,06,16,10,06,15.50
2015,06,16,10,07,15.60
2015,06,16,10,08,15.60
2015,06,16,10,09,15.60
2015,06,16,10,10,15.60
2015,06,16,10,11,15.60
2015,06,16,10,12,15.60
2015,06,16,10,13,15.70
2015,06,16,10,14,15.70
2015,06,16,10,15,15.70
2015,06,16,10,16,15.80
2015,06,16,10,17,15.80
2015,06,16,10,18,15.90
2015,06,16,10,19,15.90
2015,06,16,10,20,16.00
2015,06,16,10,21,16.10
2015,06,16,10,22,16.10
2015,06,16,10,23,16.20
2015,06,16,10,24,16.30
2015,06,16,10,25,16.40
2015,06,16,10,26,16.50
2015,06,16,10,27,16.60
2015,06,16,10,28,16.70
2015,06,16,10,29,16.80
2015,06,16,10,30,16.80
2015,06,16,10,31,16.90
2015,06,16,10,32,16.90
2015,06,16,10,33,16.90
2015,06,16,10,34,16.90
2015,06,16,10,35,16.90
2015,06,16,10,36,17.00
2015,06,16,10,37,17.00
2015,06,16,10,38,17.00
2015,06,16,10,39,17.00
2015,06,16,10,40,16.90
2015,06,16,10,41,17.00
2015,06,16,10,42,17.00
2015,06,16,10,43,17.00
2015,06,16,10,44,17.10
2015,06,16,10,45,17.10
2015,06,16,10,46,17.10
2015,06,16,10,47,17.00
2015,06,16,10,48,16.90
2015,06,16,10,49,16.90
2015,06,16,10,50,16.90
2015,06,16,10,51,16.90
2015,06,16,10,52,16.90
2015,06,16,10,53,16.90
2015,06,16,10,54,16.90
2015,06,16,10,55,16.80
2015,06,16,10,56,16.80
2015,06,16,10,57,16.80
2015,06,16,10,58,16.80
2015,06,16,10,59,16.80
2015,06,16,11,00,16.90
2015,06,16,11,01,16.90
2015,06,16,11,02,17.00
2015,06,16,11,03,17.10
2015,06,16,11,04,17.20
2015,06,16,11,05,17.30
2015,06,16,11,06,17.40
2015,06,16,11,07,17.60
2015,06,16,11,08,17.70
2015,06,16,11,09,17.90
2015,06,16,11,10,18.00
2015,06,16,11,11,18.10
2015,06,16,11,12,18.20
2015,06,16,11,13,18.20
2015,06,16,11,14,18.20
2015,06,16,11,15,18.20
2015,06,16,11,16,18.20
2015,06,16,11,17,18.10
2015,06,16,11,18,18.10
2015,06,16,11,19,18.20
2015,06,16,11,20,18.20
2015,06,16,11,21,18.30
2015,06,16,11,22,18.40
2015,06,16,11,23,18.50
2015,06,16,11,24,18.50
2015,06,16,11,25,18.60
2015,06,16,11,26,18.60
2015,06,16,11,27,18.70
2015,06,16,11,28,18.80
2015,06,16,11,29,18.80
2015,06,16,11,30,18.80
2015,06,16,11,31,18.70
2015,06,16,11,32,18.70
2015,06,16,11,33,18.70
2015,06,16,11,34,18.70
2015,06,16,11,35,18.70
2015,06,16,11,36,18.80
2015,06,16,11,37,18.80
2015,06,16,11,38,18.80
2015,06,16,11,39,18.80
2015,06,16,11,40,18.80
2015,06,16,11,41,18.80
2015,06,16,11,42,18.80
2015,06,16,11,43,18.80
2015,06,16,11,44,18.80
2015,06,16,11,45,18.80
2015,06,16,11,46,18.80
2015,06,16,11,47,18.90
2015,06,16,11,48,19.00
2015,06,16,11,49,19.10
2015,06,16,11,50,19.20
2015,06,16,11,51,19.30
2015,06,16,11,52,19.40
2015,06,16,11,53,19.40
2015,06,16,11,54,19.40
2015,06,16,11,55,19.30
2015,06,16,11,56,19.30
2015,06,16,11,57,19.30
2015,06,16,11,58,19.30
2015,06,16,11,59,19.40
2015,06,16,12,00,19.40
2015,06,16,12,01,19.40
2015,06,16,12,02,19.40
2015,06,16,12,03,19.40
2015,06,16,12,04,19.40
2015,06,16,12,05,19.30
2015,06,16,12,06,19.30
2015,06,16,12,07,19.30
2015,06,16,12,08,19.30
2015,06,16,12,09,19.30
2015,06,16,12,10,19.30
2015,06,16,12,11,19.30
2015,06,16,12,12,19.20
2015,06,16,12,13,19.10
2015,06,16,12,14,19.10
2015,06,16,12,15,19.20
2015,06,16,12,16,19.20
2015,06,16,12,17,19.30
2015,06,16,12,18,19.30
2015,06,16,12,19,19.30
2015,06,16,12,20,19.30
2015,06,16,12,21,19.30
2015,06,16,12,22,19.30
2015,06,16,12,23,19.30
2015,06,16,12,24,19.30
2015,06,16,12,25,19.30
2015,06,16,12,26,19.30
2015,06,16,12,27,19.30
2015,06,16,12,28,19.40
2015,06,16,12,29,19.40
2015,06,16,12,30,19.30
2015,06,16,12,31,19.30
2015,06,16,12,32,19.20
2015,06,16,12,33,19.20
2015,06,16,12,34,19.20
2015,06,16,12,35,19.20
2015,06,16,12,36,19.20
2015,06,16,12,37,19.10
2015,06,16,12,38,19.10
2015,06,16,12,39,19.00
2015,06,16,12,40,19.00
2015,06,16,12,41,18.90
2015,06,16,12,42,18.90
2015,06,16,12,43,19.00
2015,06,16,12,44,19.00
2015,06,16,12,45,19.10
2015,06,16,12,46,19.10
2015,06,16,12,47,19.10
2015,06,16,12,48,19.10
2015,06,16,12,49,19.10
2015,06,16,12,50,19.10
2015,06,16,12,51,19.10
2015,06,16,12,52,19.10
2015,06,16,12,53,19.10
2015,06,16,12,54,19.10
2015,06,16,12,55,19.10
2015,06,16,12,56,19.10
2015,06,16,12,57,19.20
2015,06,16,12,58,19.30
2015,06,16,12,59,19.30
2015,06,16,13,00,19.30
2015,06,16,13,01,19.30
2015,06,16,13,02,19.30
2015,06,16,13,03,19.30
2015,06,16,13,04,19.30
2015,06,16,13,05,19.30
2015,06,16,13,06,19.30
2015,06,16,13,07,19.30
2015,06,16,13,08,19.30
2015,06,16,13,09,19.30
2015,06,16,13,10,19.30
2015,06,16,13,11,19.30
2015,06,16,13,12,19.40
2015,06,16,13,13,19.40
2015,06,16,13,14,19.50
2015,06,16,13,15,19.50
2015,06,16,13,16,19.60
2015,06,16,13,17,19.70
2015,06,16,13,18,19.70
2015,06,16,13,19,19.70
2015,06,16,13,20,19.80
2015,06,16,13,21,19.80
2015,06,16,13,22,19.80
2015,06,16,13,23,19.80
2015,06,16,13,24,19.80
2015,06,16,13,25,19.80
2015,06,16,13,26,19.90
2015,06,16,13,27,19.90
2015,06,16,13,28,20.00
2015,06,16,13,29,20.10
2015,06,16,13,30,20.10
2015,06,16,13,31,20.20
2015,06,16,13,32,20.30
2015,06,16,13,33,20.40
2015,06,16,13,34,20.40
2015,06,16,13,35,20.40
2015,06,16,13,36,20.30
2015,06,16,13,37,20.30
2015,06,16,13,38,20.30
2015,06,16,13,39,20.20
2015,06,16,13,40,20.10
2015,06,16,13,41,20.00
2015,06,16,13,42,20.00
2015,06,16,13,43,19.90
2015,06,16,13,44,19.80
2015,06,16,13,45,19.70
2015,06,16,13,46,19.70
2015,06,16,13,47,19.80
2015,06,16,13,48,19.90
2015,06,16,13,49,20.00
2015,06,16,13,50,20.10
2015,06,16,13,51,20.20
2015,06,16,13,52,20.40
2015,06,16,13,53,20.50
2015,06,16,13,54,20.60
2015,06,16,13,55,20.70
2015,06,16,13,56,20.80
2015,06,16,13,57,20.80
2015,06,16,13,58,20.90
2015,06,16,13,59,20.90
2015,06,16,14,00,20.80
2015,06,16,14,01,20.80
2015,06,16,14,02,20.70
2015,06,16,14,03,20.60
2015,06,16,14,04,20.50
2015,06,16,14,05,20.40
2015,06,16,14,06,20.30
2015,06,16,14,07,20.30
2015,06,16,14,08,20.40
2015,06,16,14,09,20.40
2015,06,16,14,10,20.40
2015,06,16,14,11,20.40
2015,06,16,14,12,20.30
2015,06,16,14,13,20.30
2015,06,16,14,14,20.30
2015,06,16,14,15,20.20
2015,06,16,14,16,20.10
2015,06,16,14,17,20.10
2015,06,16,14,18,20.00
2015,06,16,14,19,20.00
2015,06,16,14,20,19.90
2015,06,16,14,21,19.90
2015,06,16,14,22,19.90
2015,06,16,14,23,19.90
2015,06,16,14,24,19.80
2015,06,16,14,25,19.80
2015,06,16,14,26,19.70
2015,06,16,14,27,19.60
2015,06,16,14,28,19.60
2015,06,16,14,29,19.50
2015,06,16,14,30,19.40
2015,06,16,14,31,19.40
2015,06,16,14,32,19.30
2015,06,16,14,33,19.20
2015,06,16,14,34,19.10
2015,06,16,14,35,19.00
2015,06,16,14,36,19.00
2015,06,16,14,37,18.90
2015,06,16,14,38,18.90
2015,06,16,14,39,18.80
2015,06,16,14,40,18.80
2015,06,16,14,41,18.70
2015,06,16,14,42,18.80
2015,06,16,14,43,18.80
2015,06,16,14,44,18.80
2015,06,16,14,45,18.80
2015,06,16,14,46,18.80
2015,06,16,14,47,18.70
2015,06,16,14,48,18.60
2015,06,16,14,49,18.60
2015,06,16,14,50,18.50
2015,06,16,14,51,18.50
2015,06,16,14,52,18.50
2015,06,16,14,53,18.50
2015,06,16,14,54,18.40
2015,06,16,14,55,18.40
2015,06,16,14,56,18.40
2015,06,16,14,57,18.40
2015,06,16,14,58,18.40
2015,06,16,14,59,18.40
2015,06,16,15,00,18.50
2015,06,16,15,01,18.50
2015,06,16,15,02,18.40
2015,06,16,15,03,18.40
2015,06,16,15,04,18.40
2015,06,16,15,05,18.40
2015,06,16,15,06,18.40
2015,06,16,15,07,18.40
2015,06,16,15,08,18.40
2015,06,16,15,09,18.30
2015,06,16,15,10,18.30
2015,06,16,15,11,18.30
2015,06,16,15,12,18.30
2015,06,16,15,13,18.30
2015,06,16,15,14,18.30
2015,06,16,15,15,18.30
2015,06,16,15,16,18.30
2015,06,16,15,17,18.30
2015,06,16,15,18,18.30
2015,06,16,15,19,18.30
2015,06,16,15,20,18.30
2015,06,16,15,21,18.30
2015,06,16,15,22,18.30
2015,06,16,15,23,18.20
2015,06,16,15,24,18.20
2015,06,16,15,25,18.30
2015,06,16,15,26,18.30
2015,06,16,15,27,18.30
2015,06,16,15,28,18.30
2015,06,16,15,29,18.20
2015,06,16,15,30,18.20
2015,06,16,15,31,18.20
2015,06,16,15,32,18.20
2015,06,16,15,33,18.20
2015,06,16,15,34,18.20
2015,06,16,15,35,18.20
2015,06,16,15,36,18.10
2015,06,16,15,37,18.10
2015,06,16,15,38,18.00
2015,06,16,15,39,18.00
2015,06,16,15,40,17.90
2015,06,16,15,41,17.90
2015,06,16,15,42,17.80
2015,06,16,15,43,17.80
2015,06,16,15,44,17.80
2015,06,16,15,45,17.80
2015,06,16,15,46,17.70
2015,06,16,15,47,17.70
2015,06,16,15,48,17.60
2015,06,16,15,49,17.50
2015,06,16,15,50,17.40
2015,06,16,15,51,17.40
2015,06,16,15,52,17.40
2015,06,16,15,53,17.30
2015,06,16,15,54,17.20
2015,06,16,15,55,17.20
2015,06,16,15,56,17.20
2015,06,16,15,57,17.20
2015,06,16,15,58,17.20
2015,06,16,15,59,17.10
2015,06,16,16,00,17.10
2015,06,16,16,01,17.10
2015,06,16,16,02,17.10
2015,06,16,16,03,17.10
2015,06,16,16,04,17.10
2015,06,16,16,05,17.10
2015,06,16,16,06,17.10
2015,06,16,16,07,17.00
2015,06,16,16,08,17.00
2015,06,16,16,09,16.90
2015,06,16,16,10,16.90
2015,06,16,16,11,16.90
2015,06,16,16,12,16.80
2015,06,16,16,13,16.80
2015,06,16,16,14,16.80
2015,06,16,16,15,16.80
2015,06,16,16,16,16.80
2015,06,16,16,17,16.70
2015,06,16,16,18,16.70
2015,06,16,16,19,16.60
2015,06,16,16,20,16.60
2015,06,16,16,21,16.50
2015,06,16,16,22,16.50
2015,06,16,16,23,16.50
2015,06,16,16,24,16.50
2015,06,16,16,25,16.50
2015,06,16,16,26,16.50
2015,06,16,16,27,16.50
2015,06,16,16,28,16.50
2015,06,16,16,29,16.50
2015,06,16,16,30,16.50
2015,06,16,16,31,16.50
2015,06,16,16,32,16.50
2015,06,16,16,33,16.50
2015,06,16,16,34,16.50
2015,06,16,16,35,16.50
2015,06,16,16,36,16.50
2015,06,16,16,37,16.50
2015,06,16,16,38,16.50
2015,06,16,16,39,16.60
2015,06,16,16,40,16.60
2015,06,16,16,41,16.60
2015,06,16,16,42,16.60
2015,06,16,16,43,16.70
2015,06,16,16,44,16.70
2015,06,16,16,45,16.70
2015,06,16,16,46,16.70
2015,06,16,16,47,16.80
2015,06,16,16,48,16.80
2015,06,16,16,49,16.80
2015,06,16,16,50,16.80
2015,06,16,16,51,16.80
2015,06,16,16,52,16.80
2015,06,16,16,53,16.80
2015,06,16,16,54,16.80
2015,06,16,16,55,16.90
2015,06,16,16,56,16.90
2015,06,16,16,57,16.90
2015,06,16,16,58,16.80
2015,06,16,16,59,16.80
2015,06,16,17,00,16.80
2015,06,16,17,01,16.70
2015,06,16,17,02,16.70
2015,06,16,17,03,16.60
2015,06,16,17,04,16.60
2015,06,16,17,05,16.60
2015,06,16,17,06,16.60
2015,06,16,17,07,16.50
2015,06,16,17,08,16.50
2015,06,16,17,09,16.40
2015,06,16,17,10,16.40
2015,06,16,17,11,16.40
2015,06,16,17,12,16.30
2015,06,16,17,13,16.30
2015,06,16,17,14,16.30
2015,06,16,17,15,16.30
2015,06,16,17,16,16.30
2015,06,16,17,17,16.30
2015,06,16,17,18,16.30
2015,06,16,17,19,16.30